Change the Weather History Date:

Thursday, July 11, 2013

  Actual Average (KDEQ) Record (KDEQ)
Temperature  
Mean Temperature 84 °F 81 °F  
Max Temperature 100 °F 92 °F 105 °F (1978)
Min Temperature 69 °F 70 °F 57 °F (1947)
Degree Days  
Heating Degree Days 0 0  
Month to date heating degree days 0  
Since 1 June heating degree days 0  
Since 1 July heating degree days 0  
Cooling Degree Days 20 16  
Month to date cooling degree days 175  
Year to date cooling degree days 770  
Since 1 June cooling degree days 553  
Growing Degree Days 34 (Base 50)    
Moisture  
Dew Point 70 °F    
Average Humidity 71    
Maximum Humidity 94    
Minimum Humidity 35    
Precipitation  
Precipitation 0.12 in 0.12 in 3.05 in (1999)
Month to date precipitation 1.57  
Year to date precipitation 27.21  
Snow  
Snow 0.00 in - - ()
Month to date snowfall  
Since 1 June snowfall  
Since 1 July snowfall  
Snow Depth -    
Sea Level Pressure  
Sea Level Pressure 29.96 in    
Wind  
Wind Speed 5 mph (NE)    
Max Wind Speed 18 mph    
Max Gust Speed 32 mph    
Visibility 9 miles    
Events      
T = Trace of Precipitation, MM = Missing Value Source: NWS Daily Summary

Daily Weather History Graph

Daily Weather History Graph

Search for Another Location

Airport or City:

Trip Planner

Search our weather history database for the weather conditions in past years. The results will help you decide how hot, cold, wet, or windy it might be!

Date:

Astronomy

Jul. 11, 2013 Rise Set
Actual Time 6:17 AM CDT 8:32 PM CDT
Civil Twilight 5:48 AM CDT 9:01 PM CDT
Nautical Twilight 5:13 AM CDT 9:36 PM CDT
Astronomical Twilight 4:35 AM CDT 10:14 PM CDT
Moon 9:25 AM CDT (7/11) 10:26 PM CDT (7/11)
Length of Visible Light 15h 12m
Length of Day
14h 15m
Waxing Crescent, 11% of the Moon is Illuminated
Jul 11
Waxing Crescent
Jul 15
First Quarter
Jul 22
Full
Jul 29
Last Quarter
Aug 6
New

Hourly Weather History & Observations

Time (CDT) Temp. Heat Index Dew Point Humidity Pressure Visibility Wind Dir Wind Speed Gust Speed Precip Events Conditions
12:15 AM 80.6 °F 83.9 °F 69.8 °F 70% 30.02 in 10.0 mi ENE 15.0 mph 29.9 mph N/A   Scattered Clouds
12:35 AM 77.0 °F - 68.0 °F 74% 30.00 in 2.5 mi East 18.4 mph 32.2 mph 0.06 in   Mostly Cloudy
12:55 AM 73.4 °F - 69.8 °F 88% 30.02 in 10.0 mi East 12.7 mph 17.3 mph 0.07 in   Mostly Cloudy
1:15 AM 73.4 °F - 69.8 °F 88% 30.00 in 4.0 mi NE 6.9 mph - 0.02 in   Mostly Cloudy
1:35 AM 73.4 °F - 69.8 °F 88% 30.00 in 7.0 mi North 6.9 mph - 0.03 in   Mostly Cloudy
1:55 AM 73.4 °F - 69.8 °F 88% 30.00 in 7.0 mi East 3.5 mph - 0.04 in   Clear
2:15 AM 71.6 °F - 69.8 °F 94% 29.99 in 10.0 mi Calm Calm - 0.01 in   Clear
2:35 AM 71.6 °F - 69.8 °F 94% 29.98 in 10.0 mi North 6.9 mph - 0.01 in   Clear
2:55 AM 71.6 °F - 69.8 °F 94% 29.98 in 10.0 mi NNE 4.6 mph - 0.01 in   Clear
3:15 AM 71.6 °F - 69.8 °F 94% 29.99 in 10.0 mi NNE 5.8 mph - N/A   Clear
3:35 AM 71.6 °F - 69.8 °F 94% 29.98 in 10.0 mi NNW 4.6 mph - N/A   Clear
3:55 AM 71.6 °F - 69.8 °F 94% 29.98 in 7.0 mi North 3.5 mph - N/A   Clear
4:15 AM 71.6 °F - 69.8 °F 94% 29.98 in 10.0 mi Calm Calm - N/A   Clear
4:35 AM 71.6 °F - 69.8 °F 94% 29.97 in 7.0 mi Calm Calm - N/A   Clear
4:55 AM 71.6 °F - 69.8 °F 94% 29.97 in 7.0 mi Calm Calm - N/A   Clear
5:15 AM 71.6 °F - 69.8 °F 94% 29.96 in 10.0 mi East 3.5 mph - N/A   Clear
5:35 AM 71.6 °F - 69.8 °F 94% 29.96 in 7.0 mi Calm Calm - N/A   Clear
5:55 AM 71.6 °F - 69.8 °F 94% 29.97 in 7.0 mi Calm Calm - N/A   Clear
6:15 AM 69.8 °F - 68.0 °F 94% 29.97 in 3.0 mi Calm Calm - N/A   Clear
6:56 AM 71.6 °F - 69.8 °F 94% 29.97 in 7.0 mi Calm Calm - N/A   Clear
7:16 AM 71.6 °F - 69.8 °F 94% 29.98 in 5.0 mi Calm Calm - N/A   Clear
7:35 AM 71.6 °F - 69.8 °F 94% 29.98 in 10.0 mi Calm Calm - N/A   Clear
7:55 AM 73.4 °F - 71.6 °F 94% 29.98 in 10.0 mi ENE 4.6 mph - N/A   Clear
8:15 AM 75.2 °F - 73.4 °F 94% 29.98 in 10.0 mi East 4.6 mph - N/A   Clear
8:35 AM 77.0 °F - 73.4 °F 89% 29.98 in 10.0 mi Calm Calm - N/A   Clear
8:55 AM 78.8 °F - 71.6 °F 78% 29.97 in 10.0 mi Calm Calm - N/A   Clear
9:15 AM 80.6 °F 83.9 °F 69.8 °F 70% 29.98 in 10.0 mi Calm Calm - N/A   Clear
9:35 AM 82.4 °F 86.3 °F 69.8 °F 66% 29.97 in 10.0 mi Calm Calm - N/A   Clear
9:55 AM 86.0 °F 91.8 °F 71.6 °F 62% 29.97 in 10.0 mi Calm Calm - N/A   Clear
10:15 AM 86.0 °F 91.8 °F 71.6 °F 62% 29.97 in 10.0 mi SW 3.5 mph - N/A   Clear
10:35 AM 87.8 °F 93.8 °F 71.6 °F 58% 29.98 in 10.0 mi Calm Calm - N/A   Clear
10:55 AM 87.8 °F 93.8 °F 71.6 °F 58% 29.98 in 10.0 mi Calm Calm - N/A   Clear
11:15 AM 89.6 °F 96.2 °F 71.6 °F 55% 29.98 in 10.0 mi Calm Calm - N/A   Clear
11:35 AM 89.6 °F 98.2 °F 73.4 °F 59% 29.98 in 10.0 mi NE 4.6 mph - N/A   Clear
11:55 AM 89.6 °F 98.2 °F 73.4 °F 59% 29.98 in 10.0 mi North 3.5 mph - N/A   Clear
12:15 PM 91.4 °F 100.1 °F 73.4 °F 55% 29.98 in 10.0 mi NNW 3.5 mph - N/A   Clear
12:35 PM 93.2 °F 100.5 °F 71.6 °F 49% 29.97 in 10.0 mi NE 3.5 mph - N/A   Clear
12:55 PM 95.0 °F 101.3 °F 69.8 °F 44% 29.97 in 10.0 mi Calm Calm - N/A   Clear
1:15 PM 95.0 °F 103.2 °F 71.6 °F 47% 29.96 in 10.0 mi WSW 3.5 mph - N/A   Clear
1:35 PM 96.8 °F 105.1 °F 71.6 °F 44% 29.96 in 7.0 mi Calm Calm - N/A   Clear
1:55 PM 98.6 °F 105.5 °F 69.8 °F 39% 29.95 in 10.0 mi Calm Calm - N/A   Clear
2:15 PM 98.6 °F 104.1 °F 68.0 °F 37% 29.93 in 10.0 mi WNW 4.6 mph - N/A   Clear
2:35 PM 100.4 °F 106.3 °F 68.0 °F 35% 29.92 in 10.0 mi East 3.5 mph - N/A   Clear
2:55 PM 100.4 °F 106.3 °F 68.0 °F 35% 29.92 in 10.0 mi North 4.6 mph - N/A   Clear
3:15 PM 98.6 °F 107.7 °F 71.6 °F 42% 29.92 in 10.0 mi NNE 6.9 mph - N/A   Clear
3:35 PM 96.8 °F 105.1 °F 71.6 °F 44% 29.91 in 10.0 mi NNE 6.9 mph - N/A   Clear
3:55 PM 93.2 °F 100.5 °F 71.6 °F 49% 29.91 in 10.0 mi North 5.8 mph - N/A   Clear
4:15 PM 89.6 °F 96.2 °F 71.6 °F 55% 29.92 in 10.0 mi NNW 3.5 mph - N/A   Clear
4:35 PM 87.8 °F 91.4 °F 68.0 °F 52% 29.94 in 10.0 mi East 8.1 mph 17.3 mph N/A   Clear
4:55 PM 86.0 °F 87.3 °F 64.4 °F 48% 29.93 in 10.0 mi Calm Calm - N/A   Clear
5:15 PM 86.0 °F 87.3 °F 64.4 °F 48% 29.92 in 10.0 mi SW 3.5 mph - N/A   Clear
5:35 PM 86.0 °F 88.2 °F 66.2 °F 51% 29.92 in 10.0 mi South 4.6 mph - N/A   Clear
5:55 PM 84.2 °F 87.3 °F 68.0 °F 58% 29.92 in 10.0 mi SSW 13.8 mph - N/A   Clear
6:15 PM 84.2 °F 87.3 °F 68.0 °F 58% 29.91 in 10.0 mi SSW 8.1 mph - N/A   Clear
6:35 PM 82.4 °F 85.4 °F 68.0 °F 62% 29.91 in 10.0 mi SSW 8.1 mph - N/A   Clear
6:55 PM 82.4 °F 86.3 °F 69.8 °F 66% 29.92 in 10.0 mi South 4.6 mph - N/A   Clear
7:15 PM 82.4 °F 85.4 °F 68.0 °F 62% 29.93 in 10.0 mi Calm Calm - N/A   Clear
7:35 PM 82.4 °F 85.4 °F 68.0 °F 62% 29.95 in 10.0 mi ESE 3.5 mph - N/A   Clear
7:55 PM 80.6 °F 83.2 °F 68.0 °F 65% 29.95 in 10.0 mi ESE 6.9 mph - N/A   Clear
8:15 PM 78.8 °F - 68.0 °F 69% 29.94 in 10.0 mi South 4.6 mph - N/A   Clear
8:35 PM 78.8 °F - 68.0 °F 69% 29.95 in 10.0 mi WSW 3.5 mph - N/A   Clear
8:55 PM 77.0 °F - 68.0 °F 74% 29.94 in 10.0 mi SSW 3.5 mph - N/A   Clear
9:15 PM 77.0 °F - 68.0 °F 74% 29.94 in 10.0 mi Calm Calm - N/A   Clear
9:35 PM 75.2 °F - 68.0 °F 78% 29.93 in 10.0 mi Calm Calm - N/A   Clear
9:55 PM 75.2 °F - 68.0 °F 78% 29.94 in 10.0 mi Calm Calm - N/A   Clear
10:15 PM 73.4 °F - 68.0 °F 83% 29.95 in 10.0 mi Calm Calm - N/A   Clear
10:35 PM 73.4 °F - 68.0 °F 83% 29.95 in 10.0 mi Calm Calm - N/A   Clear
10:55 PM 73.4 °F - 68.0 °F 83% 29.96 in 10.0 mi East 4.6 mph - N/A   Clear
11:15 PM 73.4 °F - 68.0 °F 83% 29.97 in 10.0 mi East 4.6 mph - N/A   Clear
11:35 PM 73.4 °F - 68.0 °F 83% 29.97 in 10.0 mi Calm Calm - N/A   Clear
11:55 PM 73.4 °F - 68.0 °F 83% 29.97 in 10.0 mi Calm Calm - N/A   Clear